Location: Colonia Mina de C?rbuni
(46.1667°N, 22.7167°E)
Time: 01:11:26
(UTC+00:00)

Cosmos 1544 Rocket - Pass Details

Date: 04 February 2023
Orbit: 604 x 628 km, 82.5° (Epoch: 24 March)

Event Time Altitude Azimuth Distance (km) Brightness Sun altitude
Rises 15:58:34 0° 347° (NNW) 2,870 6.9 -4.2°
Reaches altitude 10° 16:00:48 10° 344° (NNW) 1,962 6.1 -4.5°
Maximum altitude 16:05:04 60° 265° (W) 699 4.3 -5.2°
Drops below altitude 10° 16:09:19 10° 186° (S) 1,952 6.4 -5.9°
Sets 16:11:32 0° 182° (S) 2,854 7.2 -6.3°
